CZ-4C DEB, 43265

Orbit data source: Space-Track

CZ-4C DEB, 43265 is space debris in SSO originally from a launch on Sat, 31 Mar 2018 UTC launched from the Taiyaun Space Center, China (TSC). Debris objects in space refer to the collection of defunct objects orbiting the Earth. Examples of debris include non-operational satellites, rocket bodies, and fragments generated from explosions, collisions, or faulty payload assembly.

Loading next visibility...
Identifier
43265, 2018-031G
Orbit
SSO
Country
Flag of CNCN / PRC
Related business
Manufacturer
Unknown
Mission
Spacecraft
Bus & Motor
Unknown
Mass
Unknown
Launch date (UTC)
2018-03-31 (8 years ago)
Launch vehicle
Unknown
Launch site
Taiyaun Space Center, China (TSC)
Object type
Payload
Rocket body
Debris
Shape & HBR
Unknown shape, 2.1 m
Radar Cross Section
Large (>1 m²)

Expand to show TLE details & history
Last TLE update: 2 days ago

TLE from 2 days ago
0 CZ-4C DEB
1 43265U 18031G   26171.18763926  .00006947  00000-0  50894-3 0  9997
2 43265  97.7682 255.1245 0008104 249.8629 110.1724 15.03842301444890
Epoch: 2026-06-20T04:30Z
TLE epoch observation values (Epoch: 2026-06-20T04:30:12.032Z)
Latitude
-0.00007°
Longitude
-80.83148°
Altitude
560.061 km
Speed
7.58 km/s
True Right ascension
17h 00m 29s
True Declination
0° 00' 00"
Sunlit
Object was in full shadow at epoch
Visualization orbit readout
Latitude
Unknown
Longitude
Unknown
Altitude
Unknown
Speed
Unknown
Apparent Right ascension
Unknown
Apparent Declination
Unknown
Sunlit
N/A
Visualization observer readout
Local Sidereal Time
21:39:10
Azimuth
Unknown
Elevation
Unknown
Doppler factor
Unknown
Orbital elements
Apogee altitude
557.681 km
Perigee altitude
546.449 km
Semi-major axis
6,930.202 km
Eccentricity
0.00081
Inclination
97.7682°
RAAN
255.1245°
Arg. of periapsis
249.8629°
True anomaly
110.25954°
Mean anomaly
110.1724°
Eccentric anomaly
110.21597°
Mean motion
3.76205 °/min
Orbital period
95.69 mins
BSTAR
0.00050894
Loading maneuver chart data...
Computing Atmospheric mass density...
Loading historical data...
Loading historical data...
Loading historical data...
Loading historical data...
Loading historical data...
Loading historical data...
Loading historical data...

Documentation

Showing up to 5 results
|